Fairbanks Eiels, AK

6:39 AM AKDT on April 23, 2017 (GMT -0800)
Eielson Air Force Base

Weather History for PAEI - November, 2013

Change the Weather History Date:

Sunday, November 10, 2013

  Actual Average Record
Temperature  
Mean Temperature 28 °F -  
Max Temperature 32 °F 15 °F 48 °F (1997)
Min Temperature 23 °F 1 °F -44 °F (1989)
Degree Days  
Heating Degree Days 38    
Moisture  
Dew Point 25 °F    
Average Humidity 89    
Maximum Humidity 100    
Minimum Humidity 69    
Precipitation  
Precipitation 45.61 in - - ()
Sea Level Pressure  
Sea Level Pressure 29.81 in    
Wind  
Wind Speed 6 mph (South)    
Max Wind Speed 14 mph    
Max Gust Speed 21 mph    
Visibility 7 miles    
Events Fog , Snow    
Averages and records for this station are not official NWS values.
T = Trace of Precipitation, MM = Missing Value Source: NWS Daily Summary

Daily Weather History Graph

Daily Weather History Graph

Search for Another Location

Airport or City:

Trip Planner

Search our weather history database for the weather conditions in past years. The results will help you decide how hot, cold, wet, or windy it might be!

Date:

Astronomy

Nov. 10, 2013 Rise Set
Actual Time 9:06 AM AKST 3:57 PM AKST
Civil Twilight 8:07 AM AKST 4:56 PM AKST
Nautical Twilight 7:06 AM AKST 5:56 PM AKST
Astronomical Twilight 6:09 AM AKST 6:53 PM AKST
Moon 2:27 PM AKST (11/10) No Moon Set
Length of Visible Light 8h 48m
Length of Day
6h 50m
First Quarter, 57% of the Moon is Illuminated
Nov 10
First Quarter
Nov 17
Full
Nov 25
Last Quarter
Dec 2
New
Dec 9
First Quarter

Hourly Weather History & Observations

Time (AKST) Temp. Windchill Dew Point Humidity Pressure Visibility Wind Dir Wind Speed Gust Speed Precip Events Conditions
12:28 AM 26.6 °F 20.0 °F 23.0 °F 86% 29.73 in 10.0 mi NNE 5.8 mph - N/A   Mostly Cloudy
12:58 AM 25.9 °F - 22.6 °F 88% 29.76 in 10.0 mi Calm Calm - 0.00 in   Mostly Cloudy
1:13 AM 26.6 °F 16.8 °F 23.0 °F 86% 29.72 in 10.0 mi South 10.4 mph - N/A Snow Light Snow
1:58 AM 30.0 °F 22.4 °F 21.7 °F 71% 29.73 in 10.0 mi SSE 8.1 mph - 0.00 in   Scattered Clouds
2:28 AM 30.2 °F - 21.2 °F 69% 29.71 in 10.0 mi Variable 1.2 mph - N/A   Mostly Cloudy
2:58 AM 29.1 °F 22.1 °F 20.7 °F 71% 29.76 in 6.0 mi Variable 6.9 mph - N/A Snow Light Snow
3:58 AM 28.2 °F 20.2 °F 20.3 °F 72% 29.78 in 5.0 mi SSE 8.1 mph - 0.00 in Snow Light Snow
4:13 AM 26.6 °F 19.1 °F 23.0 °F 86% 29.74 in 3.0 mi Variable 6.9 mph - N/A Snow Light Snow
4:58 AM 27.7 °F 18.2 °F 24.3 °F 87% 29.76 in 10.0 mi SE 10.4 mph - 0.00 in Snow Light Snow
5:43 AM 28.4 °F 22.2 °F 26.6 °F 93% 29.73 in 2.0 mi Variable 5.8 mph - N/A Snow Light Snow
5:58 AM 28.8 °F 20.9 °F 27.0 °F 93% 29.76 in 2.5 mi South 8.1 mph - 0.00 in Snow Light Snow
6:58 AM 28.8 °F 20.9 °F 26.8 °F 92% 29.77 in 2.0 mi SSE 8.1 mph - 11.65 in Snow Light Snow
7:58 AM 29.5 °F 21.8 °F 27.9 °F 94% 29.78 in 2.5 mi South 8.1 mph - 3.88 in Snow Light Snow
8:43 AM 28.4 °F 22.2 °F 28.4 °F 100% 29.75 in 1.8 mi Variable 5.8 mph - N/A Snow Light Snow
8:58 AM 28.4 °F 21.2 °F 26.8 °F 94% 29.79 in 1.0 mi Variable 6.9 mph - 9.30 in Snow Light Snow
9:09 AM 28.4 °F 23.3 °F 26.6 °F 93% 29.76 in 1.0 mi Variable 4.6 mph - N/A Snow Light Snow
9:39 AM 28.4 °F 21.2 °F 26.6 °F 93% 29.77 in 1.2 mi Variable 6.9 mph - N/A Snow Light Snow
9:54 AM 28.4 °F 23.3 °F 26.6 °F 93% 29.76 in 0.8 mi Variable 4.6 mph - N/A Snow Light Snow
9:58 AM 28.4 °F 23.3 °F 26.6 °F 93% 29.79 in 1.0 mi Variable 4.6 mph - 7.04 in Snow Light Snow
10:13 AM 28.4 °F 21.2 °F 26.6 °F 93% 29.77 in 1.2 mi Variable 6.9 mph - N/A Snow Light Snow
10:43 AM 30.2 °F 26.7 °F 28.4 °F 93% 29.77 in 1.5 mi Variable 3.5 mph - N/A Snow Light Snow
10:58 AM 29.5 °F 23.4 °F 28.0 °F 94% 29.81 in 1.5 mi Variable 5.8 mph - 11.70 in Snow Light Snow
11:28 AM 32.0 °F 22.1 °F 30.2 °F 93% 29.79 in 2.0 mi West 13.8 mph 20.7 mph N/A Snow Light Snow
11:43 AM 30.2 °F 19.8 °F 26.6 °F 86% 29.80 in 0.5 mi WNW 13.8 mph - N/A Fog , Snow Light Freezing Fog
11:58 AM 29.3 °F 20.2 °F 26.8 °F 90% 29.83 in 1.8 mi WNW 10.4 mph - 2.04 in Snow Light Snow
12:13 PM 28.4 °F 21.2 °F 26.6 °F 93% 29.80 in 10.0 mi Variable 6.9 mph - N/A Snow Light Snow
12:58 PM 29.1 °F - 26.6 °F 90% 29.83 in 10.0 mi Calm Calm - 0.00 in   Clear
1:58 PM 27.0 °F 20.5 °F 25.3 °F 94% 29.83 in 10.0 mi Variable 5.8 mph - N/A   Clear
2:58 PM 28.0 °F 21.7 °F 26.2 °F 93% 29.83 in 10.0 mi Variable 5.8 mph - N/A   Clear
3:58 PM 27.3 °F 23.4 °F 25.3 °F 92% 29.82 in 10.0 mi Variable 3.5 mph - N/A   Clear
4:58 PM 25.2 °F 20.9 °F 23.2 °F 92% 29.85 in 10.0 mi Variable 3.5 mph - N/A   Clear
5:58 PM 27.5 °F 21.1 °F 24.8 °F 90% 29.85 in 10.0 mi Variable 5.8 mph - N/A   Clear
6:13 PM 26.6 °F - 24.8 °F 93% 29.82 in 10.0 mi Variable 2.3 mph - N/A   Mostly Cloudy
6:28 PM 28.4 °F 22.2 °F 24.8 °F 86% 29.83 in 10.0 mi Variable 5.8 mph - N/A   Mostly Cloudy
6:43 PM 28.4 °F 21.2 °F 24.8 °F 86% 29.83 in 10.0 mi Variable 6.9 mph - N/A   Scattered Clouds
6:58 PM 27.9 °F 21.5 °F 23.9 °F 85% 29.86 in 10.0 mi Variable 5.8 mph - 0.00 in   Partly Cloudy
7:28 PM 28.4 °F 21.2 °F 23.0 °F 80% 29.84 in 9.0 mi Variable 6.9 mph - N/A   Mostly Cloudy
7:43 PM 28.4 °F 22.2 °F 24.8 °F 86% 29.84 in 5.0 mi Variable 5.8 mph - N/A Snow Light Snow
7:58 PM 27.5 °F 20.2 °F 25.0 °F 90% 29.88 in 2.0 mi Variable 6.9 mph - 0.00 in Snow Light Snow
8:28 PM 26.6 °F 21.2 °F 24.8 °F 93% 29.85 in 4.0 mi Variable 4.6 mph - N/A Snow Light Snow
8:43 PM 26.6 °F 19.1 °F 24.8 °F 93% 29.85 in 9.0 mi Variable 6.9 mph - N/A Snow Light Snow
8:58 PM 26.6 °F 18.2 °F 24.6 °F 92% 29.88 in 7.0 mi SE 8.1 mph - 0.00 in Snow Light Snow
9:13 PM 26.6 °F 19.1 °F 24.8 °F 93% 29.85 in 10.0 mi Variable 6.9 mph - N/A   Overcast
9:58 PM 26.1 °F 18.4 °F 24.1 °F 92% 29.88 in 10.0 mi Variable 6.9 mph - 0.00 in   Mostly Cloudy
10:13 PM 26.6 °F 20.0 °F 23.0 °F 86% 29.85 in 10.0 mi Variable 5.8 mph - N/A   Mostly Cloudy
10:28 PM 26.6 °F 19.1 °F 23.0 °F 86% 29.86 in 10.0 mi Variable 6.9 mph - N/A   Scattered Clouds
10:43 PM 26.6 °F 21.2 °F 24.8 °F 93% 29.86 in 10.0 mi Variable 4.6 mph - N/A   Mostly Cloudy
10:58 PM 25.5 °F 18.7 °F 23.5 °F 92% 29.90 in 10.0 mi Variable 5.8 mph - N/A   Scattered Clouds
11:28 PM 24.8 °F 19.1 °F 23.0 °F 93% 29.87 in 10.0 mi Variable 4.6 mph - N/A   Mostly Cloudy
11:43 PM 23.0 °F 18.4 °F 21.2 °F 93% 29.88 in 10.0 mi SE 3.5 mph - N/A   Scattered Clouds
11:58 PM 23.2 °F - 21.4 °F 93% 29.91 in 10.0 mi Variable 2.3 mph - N/A   Mostly Cloudy